User: anonymous
Location: Skalnate Pleso
(49.1889°N, 20.2450°E)
Time: 00:08:13
(UTC+02:00)
Language:

Iridium 45 - Orbit

View from above orbital plane
View from above orbital plane
View from above satellite
View from above satellite

Ground track
Ground track

The orbit data is extracted from the following two-line orbital elements,

1 25104U 97082A   14241.39464932  .00000347  00000-0  11708-3 0  8702
2 25104 087.0306 333.5117 0002702 103.7635 256.3863 14.34221681873774
Epoch (UTC): 29 August 2014 09:28:17
Eccentricity: 0.0002702
inclination: 87.0306°
perigee height: 776 km
apogee height: 779 km
right ascension of ascending node: 333.5117°
argument of perigee: 103.7635°
revolutions per day: 14.34221681
mean anomaly at epoch: 256.3863°
orbit number at epoch: 87377

The dashed part of the orbit path shows where the satellite is in the earth's shadow,  

DLR